This is the latest recevied weather packets stored in our database for station/object K4ZZR. If no packets are shown the sender has not sent any weather packets the latest 10 day(s).
| Time | Temp. | Humidity | Pressure | Rain* | Wind** | Luminosity | Snow |
|---|---|---|---|---|---|---|---|
| 1778175252 | 31.67° C | 58% | 1014.7 hPa | 0 mm | - | 889 W/m² | - |
| 1778174949 | 31.67° C | 61% | 1014.8 hPa | 0 mm | - | 873 W/m² | - |
| 1778174645 | 31.11° C | 60% | 1015.2 hPa | 0 mm | - | 993 W/m² | - |
| 1778174341 | 31.11° C | 62% | 1015 hPa | 0 mm | - | 996 W/m² | - |
| 1778174038 | 31.11° C | 61% | 1015.1 hPa | 0 mm | - | 974 W/m² | - |
| 1778173735 | 30.56° C | 61% | 1015.1 hPa | 0 mm | - | 986 W/m² | - |
| 1778173432 | 31.67° C | 60% | 1015.2 hPa | 0 mm | - | 976 W/m² | - |
| 1778173128 | 31.67° C | 60% | 1015 hPa | 0 mm | - | 1003 W/m² | - |
| 1778172824 | 31.11° C | 62% | 1015.1 hPa | 0 mm | - | 1014 W/m² | - |
| 1778172520 | 31.11° C | 61% | 1015.3 hPa | 0 mm | - | 935 W/m² | - |
| 1778172217 | 30.56° C | 61% | 1015.2 hPa | 0 mm | - | 947 W/m² | - |
| 1778171914 | 30.56° C | 62% | 1015.4 hPa | 0 mm | - | 204 W/m² | - |
| 1778171612 | 30.56° C | 62% | 1015.6 hPa | 0 mm | - | 905 W/m² | - |
| 1778171308 | 30.56° C | 63% | 1015.5 hPa | 0 mm | - | 695 W/m² | - |
| 1778171004 | 30° C | 64% | 1015.5 hPa | 0 mm | - | 926 W/m² | - |
| 1778170701 | 30° C | 66% | 1015.8 hPa | 0 mm | - | 403 W/m² | - |
| 1778170397 | 30.56° C | 64% | 1015.7 hPa | 0 mm | - | 191 W/m² | - |
| 1778170094 | 30.56° C | 64% | 1015.8 hPa | 0 mm | - | 674 W/m² | - |
| 1778169790 | 30° C | 63% | 1016 hPa | 0 mm | - | 885 W/m² | - |
| 1778169486 | 30° C | 64% | 1016.1 hPa | 0 mm | - | 647 W/m² | - |
| 1778169182 | 30° C | 64% | 1016.1 hPa | 0 mm | - | 557 W/m² | - |
| 1778168879 | 30° C | 63% | 1016 hPa | 0 mm | - | 555 W/m² | - |
| 1778168576 | 30° C | 64% | 1016 hPa | 0 mm | - | 336 W/m² | - |
| 1778168273 | 29.44° C | 65% | 1016 hPa | 0 mm | - | 853 W/m² | - |
| 1778167969 | 29.44° C | 66% | 1016.1 hPa | 0 mm | - | 598 W/m² | - |
* Rain latest hour (hover to see other rain measurements)
** Current wind speed in m/s (hover to see current wind gust speed)